Location: Ludwik�w
(51.5149°N, 17.8185°E)
Time: 07:16:39
(UTC+00:00)

Daily predictions for brighter satellites

Satellite Brightness Start Highest point End
(mag) Time Altitude Azimuth Time Altitude Azimuth Time Altitude Azimuth
H-2A R/B 4.0 18:54:00 10° SSW 18:58:28 29° W 19:02:51 10° NNW
Cosmos 1980 Rocket 2.9 18:53:57 10° NNW 18:59:23 43° NE 19:04:45 10° ESE
SPOT 5 4.4 18:57:48 10° ESE 19:00:46 18° ENE 19:03:47 10° NNE
Cosmos 1805 Rocket 3.8 18:57:10 10° SSE 19:01:27 50° E 19:05:46 10° NNE
ERBS 2.2 18:59:42 10° SW 19:03:01 83° SSE 19:06:21 10° ENE
DMSP B5D2-2 4.1 18:58:51 10° NNE 19:04:07 86° ESE 19:09:22 10° SSW
SPOT 1/Viking Rocket 4.4 19:00:05 10° SE 19:04:49 37° ENE 19:09:36 10° N
ATLAS 5 CENTAUR R/B 2.9 19:02:36 10° NW 19:08:05 57° SW 19:14:28 10° SSE
SL-4 R/B 3.3 19:08:22 10° S 19:11:04 18° SE 19:13:38 10° E
Cosmos 1140 Rocket 4.3 19:06:35 10° SSE 19:11:05 30° E 19:15:36 10° NE
Genesis I 3.9 19:08:15 10° NW 19:12:00 44° NE 19:15:44 10° ESE
Cosmos 1697 Rocket 2.7 19:09:41 10° NNW 19:15:21 84° ENE 19:20:59 10° SSE
Cosmos 2228 Rocket 3.9 19:12:06 10° NNW 19:16:26 53° W 19:20:43 10° S
Cosmos 1833 Rocket 3.0 19:12:52 10° S 19:18:10 45° ESE 19:23:29 10° NE
Cosmos 389 Rocket 2.8 19:16:10 10° NNW 19:19:35 65° W 19:23:00 10° S
CENTAUR R/B 4.2 19:18:26 10° ESE 19:19:45 11° E 19:21:06 10° E
Cosmos 1812 2.8 19:17:35 10° NNW 19:21:27 78° W 19:25:17 10° S
SPOT 3 Rocket 4.1 19:17:13 10° S 19:22:22 60° WSW 19:27:33 10° NNW
Cosmos 1633 Rocket 3.8 19:19:04 10° SSE 19:23:06 36° E 19:27:09 10° NNE
Cosmos 2251 Rocket 4.0 19:19:54 10° SW 19:25:08 67° WNW 19:30:27 10° NNE
Cosmos 1656 4.4 19:21:32 10° NW 19:26:49 50° WSW 19:32:07 10° S
Cosmos 1707 Rocket 3.5 19:26:32 10° N 19:30:56 85° E 19:35:15 10° S
Resurs 01 Rocket 2.1 19:29:06 10° S 19:33:28 61° W 19:37:52 10° NNW
Landsat 7 3.9 19:30:11 10° SSE 19:34:55 70° ENE 19:39:41 10° N
Cosmos 1441 Rocket 3.3 19:35:49 10° SSW 19:39:37 79° WNW 19:43:24 10° N
Cosmos 1934 Rocket 4.2 19:34:09 10° S 19:40:22 59° E 19:46:38 10° NNE
Cosmos 2360 4.3 19:36:33 10° NNW 19:42:20 82° WSW 19:47:32 13° SSE
Cosmos 614 Rocket 3.9 19:38:22 10° SSW 19:43:32 85° ESE 19:48:48 10° NNE
NOSS 3-2 (A) 4.3 19:39:53 10° SSE 19:44:35 27° ESE 19:49:47 10° ENE
IGS 5A 3.4 19:41:07 11° SSE 19:45:04 86° ENE 19:49:14 10° NNW
Cosmos 1470 Rocket 4.3 19:42:24 14° SSE 19:45:46 35° E 19:49:45 10° NNE
USA 267 3.3 19:39:35 10° ENE 19:46:05 63° SE 19:52:34 10° SW
GP-B 3.2 19:44:47 10° N 19:49:12 62° E 19:53:14 12° S
Cosmos 1821 Rocket 4.2 19:47:29 10° SSW 19:53:37 75° WNW 19:59:53 10° N
Meteor 2-20 Rocket 4.5 19:48:34 10° N 19:54:47 81° E 20:00:27 13° SSE
Cosmos 921 Rocket 3.3 19:51:06 10° NNW 19:55:17 53° ENE 19:58:03 20° SE
COSMOS 2406 3.4 19:50:21 10° SW 19:56:06 77° WNW 20:01:53 10° NNE
Cosmos 1862 Rocket 3.6 19:52:57 10° N 19:57:28 80° E 20:01:01 16° SSE
SL-16 R/B 3.1 19:52:47 10° NNW 19:58:07 39° NE 20:02:26 15° ESE
ERS-1 Rocket 3.0 19:56:08 16° SSE 20:00:04 67° ENE 20:05:05 10° N
Lacrosse 5 2.2 19:56:56 10° WNW 20:02:00 65° NNE 20:06:22 14° ESE
Cosmos 2369 4.3 19:57:28 10° NW 20:03:02 53° WSW 20:08:05 13° S
Sich 1 3.9 20:01:30 10° SSW 20:05:51 54° WNW 20:10:15 10° N
SAR-Lupe-2 4.2 20:02:38 10° NNE 20:06:01 37° E 20:07:36 24° SSE
Cosmos 2219 Rocket 4.5 20:04:54 10° N 20:08:25 16° NNE 20:11:55 10° ENE
BREEZE-M DEB (TANK) 1.7 20:07:16 10° W 20:09:38 47° S 20:09:54 42° SSE
Cosmos 2082 Rocket 2.2 20:05:32 10° SSW 20:11:10 67° ESE 20:16:48 10° NE
NOSS 2 (A) 4.0 20:08:51 10° NW 20:11:35 78° NE 20:12:18 41° SE
Cosmos 2123 Rocket 4.2 20:05:50 10° NNW 20:12:00 70° W 20:18:06 10° S
Cosmos 2278 4.0 20:06:44 10° NW 20:12:24 64° WSW 20:16:44 17° SSE
Cosmos 1954 Rocket 4.1 20:07:40 10° S 20:12:52 58° ESE 20:18:07 10° NNE
Spot 2 Rocket 4.1 20:11:25 11° S 20:16:12 55° W 20:21:14 10° NNW
Meteor 1-4 Rocket 3.7 20:16:33 10° NNW 20:19:49 38° W 20:22:26 14° SSW
Cosmos 2322 Rocket 2.9 20:15:09 10° NNW 20:20:37 45° NE 20:24:25 19° ESE
CARTOSAT-1 3.6 20:20:05 21° S 20:22:57 79° WSW 20:27:18 10° NNW
USA 234 3.6 20:18:46 20° SSE 20:23:18 55° SW 20:29:44 10° WNW
Cosmos 1184 Rocket 2.8 20:21:01 18° SSW 20:23:20 83° W 20:26:40 10° N
Cosmos 1190 Rocket 4.2 20:18:38 10° SSW 20:23:55 77° WNW 20:29:16 10° NNE
Terra 1.8 20:21:08 24° SSE 20:24:01 70° ENE 20:28:47 10° N
Cosmos 1933 Rocket 3.6 20:24:16 23° S 20:26:54 62° E 20:31:18 10° NNE
Cosmos 407 Rocket 4.0 20:21:38 10° SW 20:26:55 62° WNW 20:32:11 10° NNE
Cosmos 1605 Rocket 3.9 20:21:08 11° S 20:27:00 82° E 20:33:08 10° NNE
Cosmos 1666 Rocket 4.5 20:23:18 10° SSW 20:27:29 47° WNW 20:31:42 10° N
Meteor 1-20 Rocket 4.2 20:23:26 12° S 20:28:52 80° E 20:34:45 10° NNE
Cosmos 1238 Rocket 1.9 20:28:02 34° S 20:29:11 79° E 20:32:09 10° NNE
Okean 1 3.3 20:25:24 10° N 20:29:27 81° E 20:31:27 29° SSE
Cosmos 1602 3.7 20:31:37 29° S 20:33:27 65° E 20:37:23 10° NNE
Cosmos 1437 Rocket 2.8 20:30:13 10° N 20:34:02 63° ENE 20:35:27 35° SE
ATLAS 3B R/B 4.1 20:34:00 15° ESE 20:34:06 15° ESE 20:37:42 10° ENE
Cosmos 2360 Rocket 3.3 20:29:31 10° NNW 20:34:45 36° NE 20:38:35 17° ESE
Cosmos 1869 Rocket 4.4 20:35:52 28° SE 20:37:09 34° E 20:41:11 10° NNE
SPOT 5 2.8 20:35:54 24° S 20:38:26 65° WSW 20:42:48 10° NNW
Meteor 1-19 Rocket 4.1 20:33:34 10° NNW 20:39:01 87° ENE 20:42:13 26° SSE
ERBS 4.0 20:36:29 10° W 20:39:34 34° N 20:42:38 10° ENE
Cosmos 2173 Rocket 4.5 20:36:35 25° SE 20:39:42 42° E 20:45:25 10° NNE
USA 238 DEB 3.7 20:33:35 10° SSW 20:40:04 57° SE 20:46:49 10° NE
USA 238 3.7 20:33:43 10° SSW 20:40:10 57° SE 20:46:55 10° NE
Iridium 4 Rocket 3.8 20:41:58 30° ESE 20:43:17 37° E 20:47:11 10° NNE
Geosat 4.3 20:40:38 25° ESE 20:43:26 57° NE 20:48:23 10° NNW
Cosmos 1980 Rocket 3.0 20:38:05 10° NW 20:43:26 43° WSW 20:47:05 19° S
Cosmos 2242 Rocket 3.7 20:40:42 10° NNW 20:45:09 70° W 20:47:29 27° S
Cosmos 1703 Rocket 3.5 20:40:45 10° N 20:45:09 88° E 20:47:05 33° S
Cosmos 1763 Rocket 3.5 20:43:05 10° NNW 20:48:28 89° WSW 20:51:08 31° SSE
SL-4 R/B 1.7 20:46:25 10° WSW 20:50:11 57° SSE 20:51:34 32° E
Meteor 1-14 Rocket 4.3 20:46:53 23° S 20:50:37 71° E 20:56:33 10° NNE
BREEZE-M DEB (TANK) 3.0 20:47:26 10° W 20:50:43 73° S 21:01:19 10° E
Cosmos 1500 3.7 20:50:18 36° ESE 20:50:45 38° E 20:54:15 10° NNE
Cosmos 405 Rocket 2.6 20:49:22 30° SSW 20:51:07 80° WNW 20:54:52 10° N
ALOS 2 4.4 20:50:20 16° E 20:52:12 21° ENE 20:55:28 10° NNE
Cosmos 1140 Rocket 4.4 20:47:33 10° SW 20:52:39 50° WNW 20:57:47 10° NNE
MOS 1-B Rocket 4.4 20:48:58 10° NNE 20:54:17 38° E 20:56:12 29° SE
Cosmos 2333 Rocket 3.9 20:49:52 10° NNW 20:54:44 27° NE 20:59:21 11° E
Cosmos 1536 4.4 20:58:57 21° E 20:59:03 21° E 21:02:03 10° NE
Cosmos 1459 Rocket 4.1 20:58:06 29° SSE 21:01:20 60° E 21:07:35 10° NNE
Cosmos 1833 Rocket 4.0 20:56:53 10° WSW 21:02:10 41° NW 21:07:31 10° NNE
Cosmos 1666 4.0 21:02:40 24° E 21:02:40 24° E 21:05:41 10° NE
Okean 1-7 3.3 21:02:29 10° NNW 21:06:49 64° W 21:08:30 34° SSW
Cosmos 2221 Rocket 4.0 21:03:22 10° N 21:07:44 50° ENE 21:09:01 38° ESE
CENTAUR R/B 2.7 21:04:46 23° S 21:08:32 54° ESE 21:15:26 10° NE
Cosmos 1867 3.7 21:03:05 10° SW 21:08:33 78° NW 21:14:03 10° NE
Okean 3 3.5 21:08:37 10° N 21:12:54 66° ENE 21:13:59 46° SE
Cosmos 1733 Rocket 4.2 21:13:55 27° E 21:14:20 28° E 21:18:05 10° NNE
Thor Agena Rocket 4.2 21:10:40 10° NNE 21:15:22 37° E 21:16:25 33° SE
FALCON 9 DEB 3.2 21:12:22 10° WSW 21:15:21 59° SW 21:15:21 59° SW
Meteor 2-4 Rocket 3.7 21:10:36 10° NNW 21:16:21 78° W 21:18:54 34° S
Cosmos 1802 Rocket 4.1 21:13:52 32° SSE 21:16:55 64° E 21:23:12 10° NNE
Cosmos 1850 Rocket 3.9 21:14:18 28° SSW 21:17:09 79° ESE 21:22:27 10° NNE
SL-27 R/B 2.6 21:19:37 51° ENE 21:19:37 51° ENE 21:22:29 10° NNE
Cosmos 44 3.3 21:16:31 10° NW 21:21:23 89° WSW 21:23:09 42° SE
ATLAS 5 CENTAUR R/B 1.8 21:19:02 10° NW 21:21:40 85° SW 21:23:25 38° SE
Cosmos 2346 Rocket 4.4 21:18:14 10° N 21:24:20 76° ENE 21:26:55 36° SSE
Spot 4 3.8 21:27:26 44° SE 21:28:55 75° ENE 21:33:45 10° NNW
USA 267 3.6 21:22:43 10° ENE 21:29:12 68° NNW 21:35:41 10° W
BREEZE-M DEB (TANK) 4.5 21:17:59 10° W 21:32:45 59° S 21:35:19 30° ESE
NOSS 3-2 (A) 3.6 21:28:49 10° SW 21:34:41 78° NW 21:41:31 10° NE
Cosmos 1378 4.3 21:34:12 10° N 21:37:37 32° ENE 21:37:53 31° E
Cosmos 1816 Rocket 4.5 21:33:05 10° N 21:39:25 80° E 21:41:57 39° SSE
Cosmos 841 Rocket 3.6 21:35:14 10° NNW 21:40:25 64° WSW 21:42:00 42° S
NOSS 3-2 (C) 3.3 21:35:51 17° SW 21:40:30 82° SE 21:47:16 10° NE
Cosmos 540 Rocket 3.6 21:36:43 10° NNW 21:41:52 64° WSW 21:43:22 43° S
SL-16 R/B 2.7 21:36:56 10° NW 21:42:22 48° WSW 21:44:17 34° SSW
Lacrosse 5 2.3 21:40:04 10° WNW 21:44:53 44° SW 21:45:31 42° SSW
Cosmos 2322 4.1 21:39:30 10° NNW 21:45:07 57° NE 21:47:37 32° ESE
Cosmos 1378 Rocket 4.0 21:46:38 10° N 21:50:59 51° ENE 21:51:46 45° ESE
Cosmos 1570 Rocket 4.5 21:46:29 10° NNW 21:51:38 52° WSW 21:53:10 39° SSW
Cosmos 1741 Rocket 4.4 21:48:23 23° SW 21:51:40 62° WNW 21:56:56 10° NNE
Tsikada Rocket 4.0 21:46:02 10° N 21:52:27 87° E 21:54:55 40° SSE
Cosmos 2208 Rocket 4.2 21:48:35 10° NNW 21:53:47 58° WSW 21:55:11 43° SSW
Cosmos 2219 Rocket 2.9 21:48:18 10° NNW 21:53:50 48° NE 21:56:37 27° ESE
Cosmos 1814 Rocket 4.2 21:49:03 10° NNW 21:54:10 60° WSW 21:55:32 45° SSW
Cosmos 2082 Rocket 4.0 21:50:42 10° WSW 21:55:42 31° NW 22:00:44 10° NNE
COSMOS 2487 4.0 21:58:46 25° ENE 21:58:46 25° ENE 22:00:44 10° NE
Cosmos 2237 4.3 21:53:13 10° NW 21:58:54 68° WSW 22:00:34 45° S
Cosmos 2084 Rocket 3.3 21:59:01 70° SE 21:59:06 70° SE 22:03:25 10° NE
Cosmos 2333 4.4 21:53:45 10° NNW 21:59:34 70° ENE 22:01:49 38° SE
Terra 3.9 22:00:02 14° WSW 22:02:16 18° W 22:05:32 10° NW
Cosmos 2322 Rocket 3.0 21:59:22 10° NW 22:04:39 40° WSW 22:06:13 33° SW
EO 1 Del DPAF 3.0 22:01:11 10° NNE 22:04:57 84° E 22:04:57 84° E
Meteor 1-11 Rocket 3.8 22:09:09 40° SSW 22:11:18 76° WNW 22:17:05 10° N
Cosmos 1242 Rocket 2.7 22:08:44 10° NNW 22:12:07 65° WNW 22:12:07 65° WNW
Cosmos 1486 Rocket 4.5 22:11:53 41° ESE 22:12:24 42° ESE 22:17:19 10° NE
Helios 1A 3.6 22:13:11 41° E 22:13:52 45° ENE 22:17:56 10° N
ERBS 3.9 22:13:20 10° WNW 22:16:24 34° N 22:18:11 19° ENE
Cosmos 2360 Rocket 2.5 22:13:29 10° NW 22:19:01 54° WSW 22:20:19 44° SSW
Cosmos 1544 4.4 22:20:20 30° ENE 22:20:20 30° ENE 22:23:07 10° NNE
COSMOS 2428 3.0 22:14:33 10° NNW 22:20:17 64° NE 22:22:36 36° SE
ATLAS 3B R/B 2.5 22:21:12 41° SSW 22:23:34 66° SE 22:30:10 10° NE
Cosmos 489 Rocket 4.5 22:18:14 10° NNW 22:24:36 81° ENE 22:26:57 41° SSE
Okean 2 3.8 22:20:43 10° N 22:24:44 49° ENE 22:25:03 48° E
ALOS 2 2.7 22:27:44 56° SW 22:28:10 59° WSW 22:32:31 10° NNW
SL-4 R/B 3.7 22:26:01 10° W 22:27:13 19° W 22:27:13 19° W
Cosmos 1725 Rocket 4.3 22:27:19 33° SW 22:30:11 61° WNW 22:36:29 10° N
Nimbus 7 Rocket 4.3 22:24:22 10° NNE 22:30:17 88° ESE 22:32:15 45° SSW
USA 238 DEB 4.5 22:24:39 10° WSW 22:31:12 51° NNW 22:38:03 10° NE
USA 238 4.5 22:24:46 10° WSW 22:31:18 51° NNW 22:38:10 10° NE
Cosmos 1674 Rocket 3.8 22:28:38 10° NNW 22:32:52 52° W 22:33:13 50° WSW
Cosmos 1536 3.6 22:34:39 39° W 22:35:13 41° WNW 22:39:01 10° N
Cosmos 2297 Rocket 4.3 22:34:20 12° ESE 22:35:14 12° E 22:37:23 10° ENE
Cosmos 1666 4.0 22:37:32 29° W 22:38:03 30° WNW 22:41:26 10° N
Cosmos 1743 2.7 22:38:17 84° NNE 22:38:17 84° NNE 22:42:06 10° N
Cosmos 2333 Rocket 2.1 22:33:53 10° NNW 22:39:42 83° WSW 22:41:19 50° SSE
Cosmos 1271 Rocket 2.9 22:37:18 10° NNW 22:40:47 63° WNW 22:40:47 63° WNW
NOSS 0 Rocket 4.3 22:37:43 10° NNW 22:43:56 63° NE 22:47:13 29° SE
Cosmos 2237 Rocket 3.1 22:38:34 10° NNW 22:43:59 44° NE 22:47:32 20° ESE
Lacrosse 4 Rocket 1.5 22:45:23 63° ESE 22:45:23 63° ESE 22:49:20 10° NE
Cosmos 1733 Rocket 4.1 22:50:59 32° WSW 22:52:00 37° WNW 22:56:08 10° N
Meteor 2-11 Rocket 4.4 22:51:22 46° SSW 22:53:21 83° W 22:59:30 10° N
Cosmos 44 Rocket 3.3 22:51:21 10° NW 22:56:20 89° NE 22:57:31 54° SE
CENTAUR R/B 3.4 22:53:07 10° WSW 22:59:20 53° NNW 23:06:43 10° NE
Cosmos 968 Rocket 3.3 22:59:01 59° SSW 23:00:00 85° ESE 23:05:10 10° NNE
Cosmos 1975 2.7 23:02:22 79° E 23:02:22 79° E 23:06:24 10° NNE
SL-24 DEB 4.4 22:59:42 10° N 23:04:28 65° W 23:05:18 54° SW
Resurs 1-4 Rocket 4.2 23:03:11 10° NE 23:06:15 15° E 23:08:21 13° ESE
Cosmos 1354 Rocket 4.1 23:07:09 52° SSE 23:08:07 62° ESE 23:13:24 10° NNE
Cosmos 1782 Rocket 3.3 23:10:37 76° S 23:10:57 87° E 23:15:19 10° N
USA 267 3.9 23:05:30 10° ENE 23:11:51 56° N 23:18:13 10° WNW
Cosmos 1707 3.0 23:12:08 10° N 23:16:01 58° ENE 23:16:13 57° E
Cosmos 1464 Rocket 3.9 23:15:36 46° S 23:17:40 86° E 23:23:54 10° N
Cosmos 1842 3.7 23:14:02 10° NNW 23:17:41 52° W 23:17:41 52° W
Cosmos 1908 Rocket 4.1 23:18:33 43° W 23:19:11 47° WNW 23:23:26 10° N
Cosmos 2344 4.3 23:11:48 10° NW 23:20:53 84° NE 23:33:33 10° SE
Helios 1B rocket 2.8 23:17:38 10° NNE 23:21:39 50° E 23:21:48 50° ESE
CZ-4 R/B 4.0 23:17:00 10° NNE 23:21:59 70° ESE 23:23:00 54° SSE
Meteor 1-21 4.3 23:18:03 10° NNW 23:23:49 67° W 23:25:22 48° SSW
Cosmos 2227 Rocket 3.6 23:22:42 22° SE 23:24:04 25° ESE 23:28:35 10° NE
Cosmos 1674 4.3 23:24:31 10° NNE 23:27:42 26° ENE 23:28:43 23° E
COSMOS 2487 4.2 23:32:14 23° WNW 23:32:42 23° NW 23:35:34 10° N
Nadezhda 4 Rocket 3.9 23:29:31 10° NNW 23:35:51 79° W 23:38:03 43° S
Cosmos 2219 Rocket 2.8 23:32:31 10° NW 23:37:41 37° WSW 23:38:19 36° WSW
Meteor 1-29 3.6 23:38:04 10° NNE 23:41:13 47° E 23:41:13 47° E
MOZ.5/SAFIR/RUBIN 5/SL-8 4.3 23:39:37 33° SE 23:41:30 54° ENE 23:46:09 10° N
Cosmos 1975 Rocket 3.8 23:37:56 10° NNW 23:42:08 39° W 23:42:25 39° WSW
Cosmos 1437 3.7 23:42:23 10° NNW 23:44:31 42° NNW 23:44:31 42° NNW
Okean 2 Rocket 3.0 23:45:22 62° S 23:46:04 81° E 23:50:35 10° NNE
Cosmos 2034 Rocket 4.0 23:43:53 42° SSW 23:46:11 83° W 23:52:33 10° N
Cosmos 1503 Rocket 4.3 23:45:55 40° SW 23:47:42 63° WNW 23:53:04 10° NNE
Landsat 4 4.1 23:45:16 10° N 23:48:58 51° WNW 23:49:12 50° W
ADEOS II 4.4 23:47:01 10° NE 23:49:59 15° E 23:52:56 10° ESE
Cosmos 1092 Rocket 3.9 23:43:48 10° N 23:50:06 87° ENE 23:52:45 37° SSE
SL-16 R/B 2.9 23:46:15 21° SE 23:50:26 61° ENE 23:56:35 10° NNW
GEOS 3 Rocket 4.2 23:46:54 10° NE 23:52:04 44° SE 23:53:18 38° SSE
CZ-2D R/B 3.3 23:47:32 10° NNE 23:52:32 35° E 23:54:55 24° SE
ERBS 4.1 23:49:39 10° WNW 23:51:02 23° WNW 23:51:02 23° WNW
Cosmos 1300 Rocket 3.4 23:52:28 66° S 23:53:04 88° ESE 23:57:25 10° N
Iridium 51 4.4 23:49:30 10° N 23:53:52 72° E 23:54:30 59° SE
SL-16 R/B 2.9 23:48:33 10° NNW 23:54:10 54° NE 23:59:42 10° SE
